{"data":{"norad_id":59479,"intl_designator":"2024-069A","name":"DUMMY SAT 3","alt_names":[],"object_type":"PAYLOAD","status":"ACTIVE","operator":null,"country":"CIS","launch_date":"2024-04-11","launch_site_code":"VOSTO","launch_vehicle":null,"mission":null,"orbit_class":"UNKNOWN","rcs_meters":null,"size_class":null,"mass_kg":null,"dimensions":null,"purposes":[],"wikipedia_slug":null,"has_3d_model":false,"image_url":null,"decayed_at":null,"tle_current":{"epoch":"2026-09-22T18:37:24.602880Z","epoch_age_seconds":69428,"freshness":"FRESH","line1":"1 59479U 24069A   26265.77597920 -.00000237  00000+0  00000+0 0  9993","line2":"2 59479   2.3772  80.2061 0052471 137.3347 223.6825  0.98609628  8779","mean_motion":0.98609628,"eccentricity":0.0052471,"inclination_deg":2.3772,"raan_deg":80.2061,"arg_perigee_deg":137.3347,"mean_anomaly_deg":223.6825,"bstar":0,"rev_number":877,"period_min":1460.3036531078,"perigee_km":36035.369116754,"apogee_km":36482.812713943,"semimajor_km":42637.227915349,"source":"CELESTRAK","updated_at":"2026-09-23T09:00:19.383450Z"}}}